www.pogodaiklimat.ru

Погода и климат >> Архив погоды >> Китай >> Ляонин >> Далянь


ПОГОДА в Даляне

  • Прогноз погоды в Даляне
  • Монитор погоды в Даляне

АРХИВ ПОГОДЫ в Даляне

Время (UTC), дата Ветер
(напр.,м/с)
 
Видим.   Явления Облачность Т
(С)
Тd
(С)
f
(%)
Тe
(С)
Тes
(С)
Комфортность P
(гПа)
Po
(гПа)
Тmin
(С)
Tmax
(С)
R
(мм)
R24
(мм)
S
(см)
06 12.07 Ю 2 16 км н/о +25.6 +19.5 69 +31 +31 очень
душно
1003.7 993.1 +19.8
09 12.07 Ю 3 25 км ясно +26.1 +16.9 57 +30 +33 душно 1002.5 991.5
12 12.07 Ю 3 10 км 9/9
[]
+23.4 +18.9 76 +30 +30 очень
душно
1003.1 992.5
15 12.07 Ю 2 6000 м дымка н/о +22.5 +19.7 84 +29 +29 очень
душно
1003.0 991.8
18 12.07 штиль 0 10 км н/о +21.4 +17.8 80 +26 +26 душно 1001.9 991.3 +27.6
21 12.07 Ю 1 13 км н/о +21.3 +15.6 70 +25 +25 комфорт 1002.1 990.9
00 13.07 В 1 7000 м дымка 9/9
[]
+24.1 +20.2 79 +30 +31 очень
душно
1002.3 991.7
03 13.07 В 2 11 км 9/9
[]
+25.5 +18.7 66 +30 +32 душно 1002.1 991.0
06 13.07 ЮВ 3 7000 м в посл. час дождь 10/10
[]
+24.3 +19.2 73 +29 +29 душно 1000.5 989.9 +21.2 0.1
09 13.07 Ю 1 9000 м 9/9
[]
+25.8 +18.7 65 +31 +31 очень
душно
1000.0 989.0
15 13.07 С 2 н/о дымка н/о +22.7 +19.1 80 +29 +29 очень
душно
1001.4 990.2
18 13.07 штиль 0 3300 м дымка ?/? +22.1 +20.0 88 +28 +28 душно 1001.3 990.7 +26.1
21 13.07 СВ 1 2500 м дымка н/о +21.6 +20.1 91 +27 +27 душно 1001.1 989.9
00 14.07 СВ 2 4300 м дымка ясно +25.2 +20.2 74 +31 +39 очень
душно
1002.3 991.7
03 14.07 Ю 1 3300 м слаб. ливневой дождь 9/9 1500 м
[]
+24.1 +20.4 80 +30 +32 очень
душно
1003.1 992.0
06 14.07 Ю 2 7000 м мгла 9/9 600 м
[]
+26.4 +19.5 66 +32 +34 очень
душно
1002.1 991.5 +21.5 1
09 14.07 Ю 2 6000 м дымка 9/9 1000 м
[]
+25.6 +20.2 72 +32 +32 очень
душно
1001.9 990.8
12 14.07 Ю 2 14 км 9/9 1000 м
[]
+24.1 +16.4 62 +28 +28 душно 1003.5 992.9
15 14.07 штиль 0 11 км н/о +23.2 +17.7 71 +29 +29 душно 1004.0 992.8
18 14.07 штиль 0 9000 м н/о +22.2 +18.0 77 +27 +27 душно 1004.2 993.6 +26.6
21 14.07 штиль 0 6000 м дымка н/о +21.8 +19.4 86 +27 +27 душно 1005.0 993.8
00 15.07 В 1 н/о дымка 3/3 1000 м
[]
+25.7 +21.2 76 +32 +39 очень
душно
1005.7 995.1
03 15.07 Ю 4 9000 м 6/6 1000 м
[]
+26.8 +19.7 65 +33 +38 очень
душно
1006.5 995.4
06 15.07 ЮВ 1 8000 м в посл. час ливневой дождь 9/9 1000 м
[]
+26.8 +19.9 66 +33 +35 очень
душно
1006.2 995.6 +21.8 0.0
09 15.07 Ю 2 9000 м 9/9 1000 м
[]
+26.4 +20.3 69 +33 +33 очень
душно
1005.6 994.5
12 15.07 Ю 2 6000 м дымка 8/8
[]
+23.5 +20.4 83 +29 +29 душно 1007.5 996.9
15 15.07 ЮВ 1 3400 м дымка н/о +22.8 +21.1 90 +30 +30 очень
душно
1008.8 997.6
18 15.07 В 1 4400 м дымка ?/? +22.6 +20.5 88 +29 +29 очень
душно
1008.4 997.8 +28.2
21 15.07 В 2 3300 м дымка н/о +21.8 +20.4 92 +28 +28 душно 1009.2 997.9
00 16.07 ЮВ 3 15 км 9/9 1000 м
[]
+24.3 +20.2 78 +30 +31 очень
душно
1009.9 999.2
03 16.07 Ю 3 15 км 9/9 1000 м
[]
+25.7 +20.3 72 +32 +33 очень
душно
1009.9 998.8
06 16.07 Ю 2 14 км 9/9 1000 м
[]
+25.5 +19.9 71 +31 +33 очень
душно
1009.7 999.0 +21.7
09 16.07 ЮВ 2 10 км 9/9 1000 м
[]
+25.0 +20.7 77 +31 +31 очень
душно
1009.0 997.8
12 16.07 ЮВ 2 н/о дымка 9/9 1000 м
[]
+23.7 +21.0 85 +30 +30 очень
душно
1009.3 998.6
15 16.07 ЮВ 3 3200 м дымка н/о +23.8 +22.1 90 +31 +31 очень
душно
1009.5 998.3
18 16.07 Ю 2 2600 м дымка ?/? +24.0 +22.4 91 +31 +31 очень
душно
1008.9 998.3 +26.2
21 16.07 Ю 2 3300 м дымка н/о +23.7 +22.0 90 +31 +31 очень
душно
1009.2 998.0
00 17.07 Ю 3 6000 м дымка 9/9 1000 м
[]
+24.5 +21.8 85 +31 +32 очень
душно
1009.3 998.6 0.0
03 17.07 Ю 3 7000 м 9/9 1000 м
[]
+24.5 +21.4 83 +31 +33 очень
душно
1009.8 998.6
06 17.07 Ю 4 7000 м 9/9 1000 м
[]
+25.5 +21.2 77 +32 +33 очень
душно
1009.1 998.5 +23.7
09 17.07 Ю 3 7000 м дымка 9/9 1000 м
[]
+25.2 +21.3 79 +32 +32 очень
душно
1008.7 997.6
12 17.07 Ю 1 8000 м 9/9 1000 м
[]
+24.2 +21.1 83 +31 +31 очень
душно
1009.0 998.3
15 17.07 Ю 3 10 км ?/? +23.9 +21.2 85 +30 +30 очень
душно
1009.7 998.5
18 17.07 Ю 3 8000 м н/о +23.3 +20.8 86 +31 +31 очень
душно
1009.2 998.5 +25.8
21 17.07 Ю 1 7000 м дымка н/о +22.8 +21.1 90 +30 +30 очень
душно
1009.2 998.0
00 18.07 Ю 3 10 км 9/9 1000 м
[]
+24.0 +20.5 81 +30 +31 очень
душно
1009.1 998.4
03 18.07 Ю 4 20 км 9/9 1000 м
[]
+25.2 +20.2 74 +31 +32 очень
душно
1009.4 998.2
06 18.07 Ю 3 18 км 3/3 1000 м
[]
+26.9 +19.8 65 +33 +42 очень
душно
1008.2 997.6 +22.8
09 18.07 ЮВ 2 20 км 9/9 1000 м
[]
+25.4 +19.8 71 +31 +31 очень
душно
1007.5 996.4
12 18.07 Ю 2 12 км 3/3 1000 м
[]
+23.5 +20.6 84 +29 +29 душно 1007.7 997.0
15 18.07 Ю 1 7000 м дымка н/о +23.1 +20.6 86 +30 +30 очень
душно
1008.0 996.8
18 18.07 Ю 1 6000 м дымка ?/? +22.6 +20.5 88 +29 +29 очень
душно
1007.4 996.8 +27.2
21 18.07 ЮВ 1 3800 м дымка н/о +22.0 +20.5 91 +28 +28 душно 1007.4 996.1
00 19.07 Ю 2 10 км 9/9 1500 м
[]
+24.7 +20.4 77 +31 +31 очень
душно
1007.5 996.8
03 19.07 ЮВ 4 14 км 9/9 1500 м
[]
+26.2 +20.3 70 +32 +34 очень
душно
1007.1 996.0

 

Местоположение метеостанции Далянь (Ляонин, Китай): широта 38.90 долгота 121.63 высота над уровнем моря 97 м.

В архиве по умолчанию представлена погода в Даляне за последнюю неделю. Архивные данные за месяц целиком и за предыдущие месяцы, начиная с января 2011 года, Вы можете получить, выбрав интересующий диапазон дат из раскрывающегося списка и нажав кнопку "Ввод!".


*Определитесь, кто Вы:
робот инопланетянин человек

Внимание! Время в таблицах - всемирное. Для получения местного времени необходимо прибавить поправку, которая равна 8 ч.

Смотрите также архив погоды в соседних городах и на ближайших метеорологических станциях:

Погода в Чандао (Шаньдун, Китай) (134 км)
Погода в Лункоу (Шаньдун, Китай) (183 км)
Погода в Чэнгшантоу (Шаньдун, Китай) (190 км)
Погода в Инкоу (Ляонин, Китай) (203 км)
Погода в Хайяне (Шаньдун, Китай) (240 км)
Погода в Лаотине (Хэбэй, Китай) (243 км)
Погода в Цзиньчжоу (Ляонин, Китай) (252 км)
Погода в Даньдуне (Ляонин, Китай) (265 км)
Погода в Синыйджу (КНДР) (271 км)
Погода на Пэннёндо (Корея) (281 км)

Пояснения к столбцам:

Ветер - указаны скорость ветра в м/с - средняя за 10 мин, порывы в срок и между сроками (в фигурных скобках) и направление, откуда дует ветер: С - северный, СВ - северо-восточный, В - восточный, ЮВ - юго-восточный, Ю - южный, ЮЗ - юго-западный, З - западный, СЗ - северо-западный.
Видимость - горизонтальная дальность видимости в метрах или километрах. При видимости от 1 до 10 км при отсутствии осадков обычно наблюдается дымка, при ухудшении видимости до 1 км и менее - туман. В сухую погоду видимость может ухудшаться дымом, пылью или мглою.
Явления - указаны атмосферные явления, наблюдавшиеся в срок или в последний час перед сроком; фигурными скобками обозначены явления, наблюдавшиеся между сроками (за 1-3 часа до срока); квадратными скобками обозначены град или гололедные отложения с указанием их диаметра в мм.
Облачность - указаны через наклонную черту общая и нижняя облачность в баллах и высота нижней границы облаков в метрах; квадратными скобками обозначены формы облаков: Ci - перистые, Cs - перисто-слоистые, Cc - перисто-кучевые, Ac - высококучевые, As - высокослоистые, Sc - слоисто-кучевые, Ns - слоисто-дождевые, Cu - кучевые, Cb - кучево-дождевые. Подробнее классификацию облаков см. в Атласе облаков (PDF).
T - Температура воздуха - температура, измеренная на высоте 2 м над землей.
Td - Температура точки росы - температура, при понижении до которой содержащийся в воздухе водяной пар достигнет насыщения.
f - Относительная влажность воздуха - влажноcть воздуха, измеренная на высоте 2 м над землей.
Te - Эффективная температура - температура, которую ощущает одетый по сезону человек в тени. Характеристика душности погоды. При расчете учитывается влияние влажности воздуха и скорости ветра на теплоощущения человека.
Tes - Эффективная температура на солнце - температура, которую ощущает человек, с поправкой на солнечный нагрев. Характеристика знойности погоды. Зависит от высоты солнца над горизонтом, облачности и скорости ветра. Ночью, в пасмурную погоду, а также при ветре 12 м/с и более поправка равна нулю.
P - Атмосферное давление - приведенное к уровню моря атмосферное давление.
Po - Атмосферное давление - измеренное на уровне метеостанции атмосферное давление.
Tmin - Минимальная температура - минимум температуры воздуха на высоте 2 м над землей.
Tmax - Максимальная температура - максимум температуры воздуха на высоте 2 м над землей.
R - Количество осадков - Количество выпавших осадков за период времени, мм. При наведении курсора мыши на число - период времени, за который выпало указанное количество осадков.
R24 - Количество осадков - Количество выпавших осадков за 24 часа, мм.
S - Снежный покров - Высота снежного покрова, см. При наведении курсора мыши на число - состояние снежного покрова и степень покрытия местности в баллах.